Satellite: CASTOR
Catalog number: 35694
Epoch time:      10230.44082147
Element set:     655
Inclination:      051.5930 deg
RA of node:       222.0149 deg
Eccentricity:    0.0004218
Arg of perigee:   308.0851 deg
Mean anomaly:     053.0105 deg
Mean motion:   16.48877011 rev/day
Decay rate:   7.179566e-02 rev/day^2
Epoch rev:            6110
Checksum:              273

Satellite: METEOR-M
Catalog number: 35865
Epoch time:      10301.62924063
Element set:     782
Inclination:      098.7424 deg
RA of node:       354.3608 deg
Eccentricity:    0.0002796
Arg of perigee:   357.6691 deg
Mean anomaly:     002.4440 deg
Mean motion:   14.21832380 rev/day
Decay rate:       1.76e-06 rev/day^2
Epoch rev:            5768
Checksum:              301

Satellite: RS-38
Catalog number: 35869
Epoch time:      10301.72681636
Element set:     796
Inclination:      098.7406 deg
RA of node:       354.4974 deg
Eccentricity:    0.0005107
Arg of perigee:   350.7588 deg
Mean anomaly:     009.3466 deg
Mean motion:   14.21991924 rev/day
Decay rate:       1.77e-06 rev/day^2
Epoch rev:            5770
Checksum:              341

/EX


_______________________________________________
Via the Keps mailing list courtesy of AMSAT-NA
http://amsat.org/mailman/listinfo/keps

--- ViaMAIL!/WC v1.60d
 * Origin: Chowdanet (401-724-4410) telnet://chowdanet.com  (1:323/120)